VIASAT-1

Last updated on Fri Dec 19 2025 00:02:50 GMT+0000 (Coordinated Universal Time)

1 37843U 11059A 25352.45381779 .00000000 00000+0 00000+0 0 9990 2 37843 0.0274 354.6167 0001834 275.2886 225.6473 1.00270399 45511
UTC large
Height (km)
Speed (km/s)
/
Latitude / Longitude
Inclination (degrees)
Orbital Period (minutes)
Azimuth
Elevation
Range (km)
Doppler Factor

Next 0 passes for location: London (51.5072 / 0.1276)

Sorry there are no passes over London.